Regional Weather Roundup
Issued by NWS

Home | Current Version | Previous Version | Graphics & Text | Print | Product List | Glossary On
Versions: 1 2 3 4 5 6 7 8 9 10 11 12 13 14 15 16 17 18 19 20 21 22 23 24 25 26 27
000
ASUS45 KSLC 221510
RWRUT

UTAH REGIONAL WEATHER ROUNDUP
NATIONAL WEATHER SERVICE SALT LAKE CITY UT
800 AM MST WED NOV 22 2017

UTZ001>011-023>025-221600-

NORTHERN UTAH

CITY           SKY/WX    TMP DP  RH WIND       PRES   REMARKS
BRIGHAM CITY   CLOUDY    43  39  86 CALM      30.43R
DUGWAY         PTCLDY    33  31  95 E2        30.42R
HILL AFB       PTCLDY    46  37  70 E12       30.42R
LOGAN          CLOUDY    44  40  85 CALM      30.40R
OGDEN          PTCLDY    45  38  76 S8        30.42R
SALT LAKE CITY MOCLDY    47  38  71 SE8       30.41R
TOOELE VALLEY  CLEAR     43  37  81 S6        30.42R
WENDOVER       CLEAR     34  29  82 CALM      30.42R
HEBER CITY     FOG       30  30 100 CALM      30.48R VSB 1
WEST JORDAN    CLEAR     46  39  77 S10       30.43R

$$

UTZ011>015-024>027-221600-

CENTRAL/NORTHEAST UTAH

CITY           SKY/WX    TMP DP  RH WIND       PRES   REMARKS
PROVO AIRPORT  MOCLDY    37  34  89 CALM      30.46R
MOAB/CANYONLAN MOCLDY    29  12  49 W5        30.45R WCI  24
DELTA          PTCLDY    34  30  86 CALM      30.44S
PRICE          PTCLDY    35  29  78 N6        30.46R WCI  30
RICHFIELD      CLEAR     28  28 100 CALM      30.51R
ROOSEVELT      CLOUDY    32  27  80 CALM      30.46R
VERNAL         CLOUDY    34  29  82 W5        30.45R WCI  30

$$

UTZ013>016-019>022-027-221600-

SOUTHERN UTAH

CITY           SKY/WX    TMP DP  RH WIND       PRES   REMARKS
BRYCE CANYON   PTCLDY    28  26  92 W6        30.52R WCI  22
CEDAR CITY     PTCLDY    35  32  88 NE3       30.43S
MILFORD        PTCLDY    31  28  89 W8        30.44R WCI  23
ST GEORGE      SUNNY     42  20  41 CALM      30.37R
HANKSVILLE     PTCLDY    30  12  47 CALM      30.48S
KANAB          CLEAR     37  30  75 NE5       30.45R WCI  34
BLANDING         N/A     39  30  69 NE8       30.51R WCI  33

$$

REGIONAL REPORTS     COLORADO/ARIZONA

CITY           SKY/WX    TMP DP  RH WIND       PRES   REMARKS
CRAIG, CO      CLOUDY    34  31  88 CALM      30.47R
GRAND JUNCTION CLOUDY    33  27  78 CALM      30.47R
RIFLE, CO      CLOUDY    32  30  92 S3        30.51R
MONTROSE, CO   CLOUDY    32  27  81 CALM      30.51R
CORTEZ, CO     CLOUDY    32  24  72 E7        30.44R WCI  26
COLORADO CITY    N/A     34  28  80 CALM      30.43R
PAGE, AZ       PTCLDY    42  24  49 CALM      30.42R
GRAND CANYON   CLEAR     29  21  72 CALM      30.47R SMOKE
KINGMAN, AZ    CLEAR     50  21  32 NE5       30.30R
FLAGSTAFF, AZ  CLEAR     40  27  59 E5        30.47R

$$

REGIONAL REPORTS    NEVADA/IDAHO/WYOMING

CITY           SKY/WX    TMP DP  RH WIND       PRES   REMARKS
LAS VEGAS, NV  CLEAR     55  34  45 SW5       30.28R
ELY, NY        CLEAR     29  25  85 S13       30.48R WCI  19
ELKO, NV       FOG       34  32  92 E6        30.44R VSB<1/4 WCI  29
POCATELLO, ID  CLOUDY    43  41  93 N6        30.36R
BURLEY, ID     MOCLDY    42  40  92 CALM      30.33S
FORT BRIDGER,    N/A     43  38  82 SW6       30.48R
EVANSTON, WY   CLOUDY    38  35  89 SW13      30.46R WCI  30
ROCK SPRINGS,  CLOUDY    41  35  79 SW17      30.41R
KEMMERER, WY   CLOUDY    37  36  93 SW9       30.45R WCI  31

$$




USA.gov is the U.S. government's official web portal to all federal, state and local government web resources and services.